Theta_e
290 293 292 289 288 288 287 289 287 292 292 295 305 309 312 315 314 312 311 311 310 309 307 306 304 303 303 303 304 305 304 303 302 302 302 302 302 303 303 303 303 303 301 299
289 292 292 288 290 290 291 293 296 299 299 306 311 312 311 312 312 310 309 309 309 308 306 304 302 302 302 303 303 305 304 303 303 302 302 301 301 301 301 301 300 299 298 298
285 290 289 286 292 292 294 301 301 294 301 309 308 310 310 310 311 309 308 307 306 305 303 303 302 302 302 303 305 304 303 302 301 301 301 301 301 300 299 298 298 297 297 297
285 286 281 291 302 301 300 303 305 306 308 310 310 311 312 313 310 308 307 306 304 302 301 300 301 302 304 305 304 303 301 301 301 301 300 299 299 298 298 298 298 296 296 296
284 284 289 294 300 299 297 302 307 307 308 305 305 305 303 308 309 307 306 304 302 301 300 301 302 304 304 302 302 302 301 300 300 300 299 299 298 297 298 298 297 297 297 296
286 283 281 293 301 305 304 296 310 306 304 304 306 298 298 304 305 305 304 302 299 300 301 301 302 303 302 301 301 300 300 300 300 300 299 298 298 297 297 298 298 298 296 296
286 285 289 300 302 305 288 290 308 307 306 307 305 303 302 304 303 303 301 299 300 301 301 301 302 303 300 300 300 301 301 300 299 299 298 298 297 296 296 295 295 295 295 295
287 282 282 303 301 295 301 306 310 310 309 304 303 303 304 304 301 300 299 299 300 299 299 301 302 302 300 299 300 301 300 300 299 299 300 297 295 294 294 294 294 293 294 294
292 292 302 304 303 306 307 307 309 306 306 305 304 303 303 301 300 299 299 299 300 299 300 301 301 301 299 298 300 299 298 298 297 298 296 296 295 293 293 293 293 293 293 293
296 297 297 302 304 307 309 306 308 308 308 306 303 303 301 300 299 299 299 299 300 300 299 298 300 300 300 300 300 298 296 296 296 295 294 294 294 294 293 292 292 293 293 292
295 296 298 302 301 306 306 307 308 308 307 306 303 301 300 300 299 299 299 299 300 300 299 299 300 299 300 300 299 297 296 295 295 294 293 292 292 292 292 292 292 292 292 292
290 296 295 297 299 306 305 303 304 303 303 304 302 300 300 299 300 300 299 299 299 299 299 299 299 299 299 299 298 296 295 294 293 293 292 292 292 291 291 291 291 290 291 292
293 297 299 299 303 306 304 304 305 304 303 301 301 301 301 300 300 301 300 299 299 299 299 298 298 297 298 298 297 295 293 294 294 293 292 292 292 293 292 292 292 292 290 291
297 298 297 296 296 305 305 305 304 303 302 302 301 302 302 300 300 299 300 300 300 299 298 298 298 297 297 297 296 294 294 293 293 293 293 293 295 294 293 293 293 293 292 291
296 296 295 296 298 303 304 303 301 300 300 300 301 300 300 299 299 299 300 299 298 298 298 298 296 296 298 298 296 295 294 293 293 294 293 293 293 292 293 294 292 292 294 292
296 295 295 293 294 296 302 302 298 297 298 298 298 299 299 298 297 297 297 296 294 292 293 292 292 293 296 296 295 295 294 291 292 293 292 292 291 291 292 292 291 292 292 292
293 292 292 292 292 292 293 295 296 295 295 295 294 295 295 293 292 291 290 291 291 290 290 290 289 293 294 294 295 295 294 294 288 292 292 291 291 292 292 292 291 292 291 290
294 294 294 294 292 291 291 292 293 293 292 294 294 294 293 292 289 288 288 289 288 288 287 288 290 291 292 293 293 295 293 293 293 292 291 291 291 292 292 292 292 291 291 289
294 293 293 293 292 292 291 291 291 291 292 292 290 288 289 289 289 288 288 288 288 286 287 290 291 290 290 292 291 293 296 295 294 293 292 288 291 292 291 291 291 290 290 290
294 294 293 292 292 290 290 291 290 290 290 289 288 287 286 286 286 287 288 287 287 288 289 289 289 289 290 291 290 293 295 294 293 292 291 291 291 290 290 288 290 289 289 289
293 293 293 292 291 291 290 290 289 287 288 288 287 286 285 285 286 286 285 285 286 288 289 289 290 290 290 289 291 293 294 294 293 291 290 289 289 289 289 289 288 288 287 287
293 292 291 291 289 288 288 288 287 286 285 285 285 285 285 284 285 285 285 285 285 285 288 288 287 285 287 286 291 292 293 293 292 291 290 289 290 290 288 288 287 286 286 286
293 291 290 289 287 286 286 286 285 285 285 284 284 284 283 284 285 284 284 286 285 285 286 286 285 284 284 290 291 292 292 292 291 290 291 291 291 290 288 287 286 286 285 284
291 290 289 288 288 286 284 284 285 286 285 285 284 284 284 283 284 284 285 284 283 285 285 285 285 284 284 290 291 291 292 292 292 291 290 287 288 287 287 286 285 284 283 283
289 289 288 287 286 284 284 285 285 285 285 285 285 285 285 285 284 284 285 285 284 285 286 284 284 284 288 291 291 291 290 290 289 288 287 286 286 286 285 285 283 283 282 282
287 287 287 287 285 284 285 285 283 283 284 284 284 284 284 285 285 285 285 285 286 285 286 285 287 288 289 290 289 289 288 287 287 287 286 286 285 284 283 283 282 282 282 281
286 286 285 284 284 284 284 283 283 282 283 282 283 284 284 285 285 285 285 286 286 286 288 288 289 288 288 288 287 286 286 286 285 286 285 284 284 283 283 282 282 282 282 281
Wind_Speed
9 3 6 6 12 15 17 21 7 3 6 6 15 22 20 20 22 22 20 18 17 17 15 14 14 14 10 10 10 9 11 9 8 7 6 6 6 6 6 7 7 8 8 10
4 2 7 6 13 21 24 22 8 6 7 9 16 17 20 19 23 22 21 20 18 17 15 14 14 14 11 10 10 9 10 8 7 7 7 6 6 7 8 8 8 8 9 9
3 6 3 7 16 16 7 5 8 5 7 16 21 21 22 22 22 24 23 22 20 18 16 12 13 14 13 11 10 10 9 7 6 6 7 6 6 7 7 7 6 7 8 7
2 2 1 7 8 3 8 6 12 17 15 15 16 13 12 12 19 20 23 23 20 16 14 10 11 12 12 11 10 9 7 6 6 6 7 5 6 7 5 4 5 5 5 5
3 1 4 7 6 5 5 7 6 19 17 19 20 20 12 11 12 15 18 16 15 14 14 12 13 12 13 12 10 9 7 6 5 6 6 5 5 4 4 5 5 4 4 5
2 3 3 3 7 7 4 7 5 17 19 21 20 13 6 14 15 15 14 14 16 15 14 13 10 12 13 11 10 8 7 6 6 6 6 6 6 6 3 4 5 5 5 4
1 3 4 8 20 7 6 4 4 11 19 18 9 5 14 18 15 13 13 17 15 15 13 11 10 12 11 9 9 7 7 7 7 5 6 6 5 3 4 4 5 5 5 3
4 2 3 15 9 8 2 6 4 8 8 14 19 20 16 17 17 17 17 14 13 13 11 8 10 12 10 9 7 7 8 8 6 5 5 5 7 5 5 4 5 4 3 3
0 1 4 6 5 8 5 3 4 7 9 19 21 19 18 17 17 15 15 12 11 13 11 7 8 9 10 6 8 8 7 7 6 6 6 5 6 6 5 4 4 4 3 4
3 5 9 9 10 11 6 6 8 14 15 18 21 19 18 17 14 15 13 13 12 12 11 9 7 7 8 7 8 8 8 6 6 8 6 5 5 5 5 4 3 3 4 4
2 8 12 6 12 10 11 11 15 12 15 17 19 18 17 15 15 15 14 12 11 11 11 9 8 7 6 7 8 8 7 6 6 5 6 6 5 4 5 3 3 2 2 2
3 6 6 7 14 6 13 7 10 19 16 12 12 16 17 16 13 15 14 13 12 11 11 9 8 6 5 5 8 8 7 5 4 5 4 4 5 5 6 5 5 6 4 4
5 11 8 10 10 4 8 9 8 13 13 18 14 15 16 17 13 17 14 13 13 12 10 9 8 7 5 5 6 6 7 5 4 5 4 5 3 3 2 1 2 4 5 6
9 7 2 7 6 4 10 12 11 11 13 13 16 16 16 17 16 15 13 12 12 12 10 8 8 7 6 6 7 6 5 7 4 3 4 4 3 2 2 1 2 2 4 6
9 8 5 5 10 5 10 13 12 12 13 15 13 16 16 16 15 13 11 11 11 11 10 9 8 6 5 6 7 6 5 3 4 5 4 5 4 3 2 2 2 2 2 5
6 9 11 13 12 12 8 11 12 10 11 12 12 14 13 13 13 12 11 10 11 8 7 8 7 2 4 5 6 4 3 7 6 5 5 4 3 3 2 2 2 3 3 2
2 6 9 11 12 13 12 9 9 11 11 12 13 14 15 14 13 12 9 8 9 8 6 5 4 4 5 4 4 4 4 5 6 5 4 3 3 3 3 3 3 3 2 3
10 11 11 12 11 11 12 13 12 12 11 11 12 14 14 12 12 10 8 8 8 8 5 4 4 4 5 5 4 3 4 5 4 4 3 3 3 3 3 3 3 3 3 5
11 12 12 14 12 12 11 12 12 12 12 10 11 12 11 10 8 9 5 6 6 6 2 3 8 6 4 4 3 2 4 6 5 4 3 4 3 2 2 2 2 4 5 6
12 12 13 12 12 13 11 11 11 12 11 10 10 10 9 6 5 7 5 5 3 3 3 4 4 3 3 4 5 1 3 5 5 4 3 3 3 3 2 3 4 5 6 6
10 10 12 11 10 10 9 7 8 9 8 6 7 6 6 5 5 4 6 4 2 3 4 4 2 1 2 3 3 1 3 4 4 4 4 3 3 3 3 5 6 6 6 7
6 7 9 8 7 8 7 7 7 7 6 5 6 5 5 5 5 5 4 3 2 3 3 2 2 3 3 4 2 1 3 4 3 3 3 5 5 5 6 6 6 7 6 6
6 6 7 7 6 7 7 7 7 7 7 6 6 5 4 3 2 3 3 3 2 3 3 2 2 4 4 2 1 0 3 4 3 3 4 4 4 5 6 6 6 6 7 6
7 6 7 7 7 6 6 4 6 6 6 6 5 4 4 3 3 3 3 3 2 2 2 1 2 3 3 1 1 2 3 3 3 3 4 5 6 7 6 7 7 6 6 6
7 7 7 6 5 4 6 6 6 5 5 5 4 3 3 1 1 2 2 1 2 1 0 2 3 3 2 1 2 3 3 4 4 4 5 6 7 7 7 6 6 7 6 5
7 5 4 5 4 5 5 4 4 3 4 3 2 2 2 2 2 2 1 1 1 1 1 2 2 2 2 3 3 4 4 5 6 5 7 6 7 7 7 7 7 6 6 5
5 6 5 3 2 4 5 5 5 4 3 2 2 2 3 2 2 2 1 1 1 1 2 2 2 3 4 4 4 4 4 5 6 6 5 6 6 6 6 6 6 6 5 5
Wind_Direction
246 299 166 181 167 218 248 248 274 243 139 135 154 145 142 133 130 127 126 126 128 129 129 123 120 108 113 104 101 106 98 90 90 87 87 83 76 79 74 66 65 69 56 45
199 175 347 91 243 238 241 254 235 127 74 114 135 129 132 140 140 132 131 130 128 127 125 125 125 118 114 114 105 108 102 105 101 96 90 83 80 79 75 69 67 65 52 46
323 339 346 210 235 224 212 187 150 131 146 139 146 143 147 150 152 145 139 136 133 132 130 135 128 124 121 115 109 98 99 93 90 87 83 80 80 80 73 72 79 69 53 47
335 272 342 261 358 6 117 68 100 114 126 127 123 109 126 143 146 141 136 134 132 133 126 121 116 112 115 109 103 101 96 94 88 85 84 80 76 80 83 83 97 81 60 48
247 22 266 288 15 9 32 63 122 118 109 113 111 95 71 101 121 126 125 122 120 121 120 122 118 117 110 106 109 110 108 106 103 105 99 92 86 97 93 107 110 85 62 48
115 2 30 305 306 327 256 78 77 119 126 132 135 132 137 115 112 113 111 114 119 116 113 106 108 114 114 118 121 125 132 128 121 113 111 104 107 94 82 90 108 93 73 44
81 186 297 342 319 299 83 238 334 145 137 146 147 104 135 120 109 112 116 116 116 116 118 118 118 118 120 128 136 140 124 120 111 109 104 113 84 65 87 98 96 81 70 36
330 16 57 360 353 60 180 296 143 134 130 109 116 116 122 119 118 118 116 113 113 112 112 118 123 124 128 132 138 132 126 115 110 113 114 105 102 89 89 103 95 78 67 42
107 358 358 355 319 303 250 228 111 110 122 128 127 129 130 129 124 123 122 115 113 120 119 112 111 127 131 145 135 128 113 111 112 106 104 106 106 103 95 88 97 85 71 50
306 5 344 22 353 12 55 102 100 117 129 131 130 129 126 122 122 115 117 116 121 123 121 114 109 115 130 137 123 119 113 114 111 110 103 94 97 104 107 95 85 77 61 46
332 359 334 33 1 6 50 87 97 102 125 137 133 131 132 128 127 123 121 118 119 119 118 113 114 114 122 120 122 114 114 113 114 111 113 107 84 86 94 70 71 80 59 40
336 343 305 301 318 308 90 59 106 118 110 111 126 132 136 121 126 122 119 120 112 108 111 110 106 102 108 122 128 127 120 120 131 131 127 118 114 101 56 86 56 65 80 51
310 304 292 316 337 60 90 92 107 114 119 124 124 127 124 119 120 117 117 118 119 121 120 118 115 108 110 119 121 123 123 127 120 129 138 132 115 105 101 344 343 42 53 49
360 323 270 357 315 29 96 100 104 106 112 120 118 117 122 119 120 118 123 125 122 121 119 118 113 113 124 117 110 109 105 111 113 131 136 132 135 121 117 110 96 94 58 56
30 30 23 358 31 82 105 111 113 117 119 118 119 121 125 126 122 119 117 114 109 109 113 110 101 96 117 116 109 112 120 116 112 106 113 114 109 101 108 93 83 90 76 55
47 46 37 39 32 28 102 117 109 105 106 109 111 112 112 108 111 106 107 113 116 110 104 102 93 94 87 104 112 106 101 114 110 113 113 106 101 107 114 110 93 90 86 68
41 50 57 52 43 39 47 65 88 107 111 106 109 110 104 102 95 88 83 87 95 96 95 112 100 63 75 84 103 117 109 110 114 106 105 107 113 121 116 115 117 99 77 63
70 65 58 62 68 55 56 60 68 76 78 92 106 105 104 103 107 100 101 104 101 86 68 74 86 65 65 68 80 117 123 128 126 123 117 97 111 113 118 121 103 91 74 77
77 79 65 60 59 63 58 63 70 75 73 78 79 77 86 93 114 105 117 105 105 109 84 72 75 65 60 49 69 90 142 139 133 121 117 120 122 115 109 97 88 94 97 99
85 85 91 79 68 63 51 51 59 66 67 73 83 79 85 87 97 105 104 97 85 104 107 66 72 78 56 27 17 66 144 135 133 125 139 127 130 119 116 92 93 90 103 97
117 109 105 100 92 81 76 61 65 75 69 85 100 109 110 87 92 105 118 110 74 79 86 82 75 52 52 27 20 24 137 132 138 137 143 131 138 133 116 109 102 106 100 104
129 115 111 110 104 99 94 93 92 94 92 89 87 95 106 100 95 82 60 101 125 88 96 85 68 31 31 8 13 29 129 125 124 129 132 134 142 137 123 116 112 108 109 108
130 125 119 116 111 101 88 81 89 105 108 105 99 101 96 87 83 100 100 69 67 84 98 86 58 39 26 354 4 351 139 131 145 150 149 151 140 128 121 118 112 121 118 112
124 121 112 110 110 94 85 80 88 88 89 89 84 84 100 105 76 48 96 120 95 90 86 54 30 21 355 320 282 157 133 134 135 121 116 111 116 115 114 121 119 113 110 108
123 120 124 132 128 115 124 121 101 95 95 95 101 106 115 114 112 152 144 129 138 101 104 3 331 309 293 255 134 118 115 108 106 108 106 111 115 117 116 115 116 116 112 108
140 145 143 142 139 134 136 132 124 136 146 140 124 117 96 87 83 88 72 74 262 205 154 201 233 252 106 108 109 111 115 120 113 109 113 114 111 113 120 121 121 119 120 118
108 119 120 104 114 137 144 150 151 169 178 159 123 140 136 117 107 105 123 207 120 120 172 174 122 80 80 84 83 87 94 104 109 111 106 110 114 121 126 127 125 124 122 120